sat.trackr.live / text

‹ back to catalog

STARLINK-11540 [DTC]

NORAD 62564 · 2025-006L

PAYLOAD ACTIVE UNKNOWN

§ Identity

Operator
Country
US
Launch date
2025-01-10
Launch site
AFETR
Launch vehicle
Mass (kg)
RCS (m²)

Purposes: comms

External: N2YO · Heavens-Above · Gunter

§ Orbital elements

Epoch: 2026-09-21T16:08:17.218464Z

Period
91.67 min
Inclination
43.0011°
Eccentricity
0.0001884
Mean motion
15.70872949 rev/d
Perigee alt
355.1 km
Apogee alt
357.7 km
Semi-major
6,734.5 km
B*
1.1405e-3
RAAN
38.7290°
Arg perigee
259.1637°
Mean anomaly
100.9018°
Rev number
9,742

§ Raw data

STARLINK-11540 [DTC]1 62564U 25006L   26264.67242151  .00148750  00000+0  11405-2 0  99912 62564  43.0011  38.7290 0001884 259.1637 100.9018 15.70872949 97420

JSON: /api/v1/satellites/62564 · /tle

For live sub-satellite position, see the globe view (requires WebGL).

§ Visibility from observer

Set your observer location to see the next 7 days of passes ≥ 10°. The values pass through the URL so the page stays shareable.

No JS? Fill the form by hand. The geolocation button needs JavaScript.